| time (UTC) | temp F | wind direction | speed knots | gust knots | rain 1hr in | rain 24hr in | rain mn in | humidity % | barometer mb |
| 20260831033029 | 52 | 240 | 2.6 | 6.1 | 0.00 | 0.25 | 0.00 | 96 | 1002.6 |
| 20260831032530 | 52 | 247 | 2.6 | 6.1 | 0.00 | 0.25 | 0.00 | 96 | 1002.5 |
| 20260831032030 | 52 | 259 | 2.6 | 5.2 | 0.00 | 0.25 | 0.00 | 96 | 1002.5 |
| 20260831031530 | 52 | 272 | 1.7 | 6.1 | 0.00 | 0.25 | 0.00 | 96 | 1002.5 |
| 20260831031048 | 52 | 269 | 3.5 | 6.1 | 0.00 | 0.25 | 0.00 | 96 | 1002.4 |
| 20260831030529 | 53 | 261 | 2.6 | 6.1 | 0.00 | 0.25 | 0.00 | 96 | 1002.4 |
| 20260831030031 | 53 | 271 | 2.6 | 6.1 | 0.00 | 0.25 | 0.00 | 96 | 1002.3 |
| 20260831025531 | 53 | 271 | 2.6 | 7.0 | 0.00 | 0.25 | 0.00 | 96 | 1002.5 |
| 20260831025029 | 53 | 204 | 3.5 | 7.0 | 0.00 | 0.25 | 0.00 | 96 | 1002.3 |
| 20260831024530 | 53 | 223 | 4.3 | 7.0 | 0.00 | 0.25 | 0.00 | 96 | 1002.3 |
| 20260831024033 | 53 | 243 | 1.7 | 6.1 | 0.00 | 0.25 | 0.00 | 96 | 1002.3 |
| 20260831023530 | 53 | 262 | 2.6 | 7.0 | 0.00 | 0.25 | 0.00 | 96 | 1002.3 |
| 20260831023029 | 54 | 258 | 3.5 | 7.0 | 0.00 | 0.25 | 0.00 | 96 | 1002.3 |
| 20260831022530 | 54 | 227 | 2.6 | 6.1 | 0.00 | 0.25 | 0.00 | 96 | 1002.2 |
| 20260831022031 | 53 | 207 | 3.5 | 6.1 | 0.00 | 0.25 | 0.00 | 96 | 1002.1 |
| 20260831021528 | 54 | 209 | 1.7 | 6.1 | 0.00 | 0.25 | 0.00 | 96 | 1002.2 |
| 20260831021031 | 54 | 257 | 1.7 | 6.1 | 0.00 | 0.25 | 0.00 | 96 | 1002.3 |
| 20260831020529 | 53 | 212 | 3.5 | 7.8 | 0.00 | 0.25 | 0.00 | 96 | 1002.2 |
| 20260831020034 | 53 | 214 | 3.5 | 7.8 | 0.00 | 0.25 | 0.00 | 95 | 1002.2 |
| 20260831015532 | 53 | 247 | 1.7 | 4.3 | 0.00 | 0.25 | 0.00 | 95 | 1002.2 |
| 20260831015031 | 53 | 247 | 1.7 | 5.2 | 0.00 | 0.25 | 0.00 | 95 | 1002.2 |
| 20260831014532 | 54 | 247 | 1.7 | 5.2 | 0.00 | 0.25 | 0.00 | 95 | 1002.1 |
| 20260831014031 | 54 | 247 | 1.7 | 5.2 | 0.00 | 0.25 | 0.00 | 95 | 1002.0 |
| 20260831013530 | 54 | 247 | 1.7 | 5.2 | 0.00 | 0.25 | 0.00 | 95 | 1002.1 |
| 20260831013032 | 54 | 247 | 1.7 | 5.2 | 0.00 | 0.25 | 0.00 | 95 | 1002.1 |
| 20260831012530 | 54 | 247 | 2.6 | 4.3 | 0.00 | 0.25 | 0.00 | 95 | 1002.2 |
| 20260831011530 | 54 | 247 | 1.7 | 4.3 | 0.00 | 0.25 | 0.00 | 95 | 1002.2 |
| 20260831011031 | 55 | 258 | 1.7 | 4.3 | 0.00 | 0.25 | 0.00 | 94 | 1002.2 |
| 20260831005529 | 55 | 237 | 1.7 | 5.2 | 0.00 | 0.25 | 0.00 | 94 | 1002.2 |
| 20260831004530 | 55 | 258 | 1.7 | 5.2 | 0.00 | 0.25 | 0.00 | 94 | 1002.2 |
| 20260831004031 | 56 | 234 | 0.9 | 5.2 | 0.00 | 0.25 | 0.00 | 95 | 1002.2 |
| 20260831003529 | 56 | 234 | 1.7 | 5.2 | 0.00 | 0.25 | 0.00 | 95 | 1002.2 |
| 20260831003031 | 56 | 213 | 1.7 | 6.1 | 0.00 | 0.25 | 0.00 | 95 | 1002.2 |
| 20260831002529 | 56 | 175 | 2.6 | 6.1 | 0.00 | 0.25 | 0.00 | 95 | 1002.2 |
| 20260831002030 | 56 | 162 | 3.5 | 7.8 | 0.00 | 0.25 | 0.00 | 95 | 1002.4 |
| 20260831001030 | 56 | 214 | 2.6 | 7.8 | 0.00 | 0.25 | 0.00 | 95 | 1002.5 |
| 20260830235530 | 56 | 217 | 4.3 | 9.6 | 0.00 | 0.25 | 0.00 | 95 | 1002.6 |
| 20260830235033 | 56 | 189 | 3.5 | 9.6 | 0.00 | 0.25 | 0.00 | 95 | 1002.7 |
| 20260830234512 | 56 | 186 | 3.5 | 6.1 | 0.00 | 0.25 | 0.00 | 95 | 1002.7 |
| 20260830234004 | 56 | 199 | 1.7 | 5.2 | 0.00 | 0.25 | 0.00 | 95 | 1002.8 |
| 20260830233504 | 56 | 224 | 1.7 | 7.0 | 0.00 | 0.25 | 0.00 | 95 | 1002.9 |
| 20260830233006 | 56 | 172 | 0.9 | 7.8 | 0.00 | 0.25 | 0.00 | 95 | 1002.8 |
| 20260830232505 | 56 | 141 | 3.5 | 7.8 | 0.00 | 0.25 | 0.00 | 95 | 1002.8 |
| 20260830232009 | 56 | 144 | 3.5 | 6.1 | 0.00 | 0.25 | 0.00 | 95 | 1002.8 |
| 20260830231004 | 56 | 121 | 2.6 | 6.1 | 0.00 | 0.25 | 0.00 | 95 | 1002.8 |
| 20260830230506 | 56 | 161 | 1.7 | 5.2 | 0.00 | 0.25 | 0.00 | 95 | 1002.9 |
| 20260830230004 | 56 | 157 | 1.7 | 7.8 | 0.00 | 0.25 | 0.00 | 95 | 1002.9 |
| 20260830225505 | 56 | 166 | 2.6 | 7.8 | 0.00 | 0.25 | 0.25 | 95 | 1003.0 |
| 20260830225007 | 56 | 221 | 2.6 | 6.1 | 0.00 | 0.25 | 0.25 | 95 | 1002.9 |
| 20260830224505 | 56 | 195 | 1.7 | 5.2 | 0.00 | 0.25 | 0.25 | 95 | 1003.0 |
| 20260830224004 | 56 | 195 | 0.9 | 6.1 | 0.00 | 0.25 | 0.25 | 95 | 1003.0 |
| 20260830222935 | 56 | 186 | 1.7 | 6.1 | 0.00 | 0.25 | 0.25 | 95 | 1002.9 |
| 20260830222431 | 56 | 193 | 0.9 | 4.3 | 0.00 | 0.25 | 0.25 | 95 | 1003.0 |
| 20260830221932 | 56 | 217 | 0.9 | 4.3 | 0.00 | 0.25 | 0.25 | 95 | 1003.1 |
| 20260830221429 | 56 | 196 | 1.7 | 4.3 | 0.00 | 0.25 | 0.25 | 95 | 1003.1 |
| 20260830220928 | 56 | 145 | 0.9 | 2.6 | 0.00 | 0.25 | 0.25 | 94 | 1003.1 |
| 20260830220426 | 56 | 114 | 0.9 | 4.3 | 0.00 | 0.25 | 0.25 | 94 | 1003.1 |
| 20260830214907 | 56 | 281 | 0.9 | 2.6 | 0.00 | 0.25 | 0.25 | 94 | 1003.1 |
| 20260830214405 | 56 | 281 | 0.0 | 1.7 | 0.00 | 0.25 | 0.25 | 94 | 1003.1 |
| 20260830213403 | 56 | 281 | 0.0 | 1.7 | 0.01 | 0.25 | 0.25 | 94 | 1003.2 |
| 20260830212329 | 56 | 281 | 0.0 | 2.6 | 0.01 | 0.25 | 0.25 | 94 | 1003.2 |
| 20260830211829 | 56 | 281 | 0.0 | 4.3 | 0.04 | 0.25 | 0.25 | 93 | 1003.2 |
| 20260830210830 | 56 | 281 | 1.7 | 4.3 | 0.06 | 0.25 | 0.25 | 93 | 1003.3 |
| 20260830210329 | 56 | 213 | 0.9 | 4.3 | 0.07 | 0.25 | 0.25 | 93 | 1003.4 |
| 20260830205830 | 56 | 213 | 1.7 | 6.1 | 0.09 | 0.25 | 0.25 | 93 | 1003.5 |
| 20260830204828 | 57 | 220 | 3.5 | 7.0 | 0.11 | 0.25 | 0.25 | 93 | 1003.3 |
| 20260830204331 | 57 | 230 | 3.5 | 11.3 | 0.12 | 0.25 | 0.25 | 93 | 1003.5 |
| 20260830203831 | 57 | 235 | 3.5 | 11.3 | 0.12 | 0.26 | 0.25 | 93 | 1003.6 |
| 20260830203328 | 57 | 226 | 4.3 | 9.6 | 0.11 | 0.25 | 0.24 | 93 | 1003.6 |
| 20260830202829 | 57 | 221 | 5.2 | 7.8 | 0.11 | 0.25 | 0.24 | 93 | 1003.7 |
| 20260830202328 | 57 | 190 | 2.6 | 5.2 | 0.11 | 0.25 | 0.24 | 93 | 1003.8 |
| 20260830201831 | 57 | 212 | 2.6 | 6.1 | 0.08 | 0.22 | 0.20 | 92 | 1003.7 |
| 20260830201331 | 57 | 202 | 4.3 | 7.8 | 0.08 | 0.22 | 0.20 | 92 | 1003.8 |
| 20260830200807 | 58 | 171 | 3.5 | 10.4 | 0.06 | 0.20 | 0.19 | 92 | 1004.0 |
| 20260830200305 | 58 | 169 | 7.0 | 12.2 | 0.05 | 0.19 | 0.18 | 92 | 1004.0 |
| 20260830195758 | 58 | 206 | 6.1 | 12.2 | 0.03 | 0.17 | 0.15 | 92 | 1004.0 |
| 20260830195259 | 58 | 138 | 7.0 | 12.2 | 0.02 | 0.16 | 0.14 | 92 | 1004.1 |
| 20260830194754 | 58 | 186 | 7.0 | 10.4 | 0.01 | 0.15 | 0.13 | 92 | 1004.0 |
| 20260830194255 | 58 | 188 | 4.3 | 9.6 | 0.00 | 0.14 | 0.13 | 92 | 1003.7 |
| 20260830193754 | 58 | 231 | 1.7 | 5.2 | 0.00 | 0.14 | 0.13 | 93 | 1003.6 |
| 20260830193248 | 58 | 227 | 1.7 | 5.2 | 0.01 | 0.14 | 0.13 | 93 | 1003.5 |
| 20260830192749 | 58 | 173 | 0.9 | 5.2 | 0.01 | 0.14 | 0.13 | 93 | 1003.4 |
| 20260830191729 | 58 | 202 | 3.5 | 7.8 | 0.01 | 0.14 | 0.13 | 93 | 1003.4 |
| 20260830191228 | 58 | 200 | 3.5 | 7.0 | 0.01 | 0.14 | 0.13 | 93 | 1003.4 |
| 20260830190728 | 59 | 199 | 3.5 | 6.1 | 0.01 | 0.14 | 0.13 | 93 | 1003.4 |
| 20260830190229 | 59 | 199 | 3.5 | 6.1 | 0.01 | 0.14 | 0.13 | 93 | 1003.5 |
| 20260830185208 | 59 | 195 | 2.6 | 6.1 | 0.01 | 0.14 | 0.13 | 93 | 1003.6 |
| 20260830184703 | 59 | 193 | 3.5 | 6.1 | 0.01 | 0.14 | 0.13 | 93 | 1003.6 |
| 20260830184205 | 59 | 183 | 2.6 | 7.8 | 0.01 | 0.14 | 0.13 | 93 | 1003.7 |
| 20260830183706 | 59 | 169 | 2.6 | 7.8 | 0.01 | 0.14 | 0.13 | 93 | 1003.6 |
| 20260830182707 | 59 | 185 | 4.3 | 7.0 | 0.00 | 0.13 | 0.13 | 93 | 1003.7 |
| 20260830182145 | 59 | 178 | 2.6 | 6.1 | 0.00 | 0.13 | 0.13 | 93 | 1003.7 |
| 20260830181635 | 59 | 186 | 3.5 | 6.1 | 0.00 | 0.13 | 0.13 | 93 | 1003.6 |
| 20260830180634 | 59 | 159 | 3.5 | 9.6 | 0.00 | 0.13 | 0.13 | 94 | 1003.6 |
| 20260830180136 | 59 | 169 | 4.3 | 7.8 | 0.00 | 0.13 | 0.13 | 94 | 1003.6 |
| 20260830175628 | 59 | 154 | 3.5 | 7.0 | 0.00 | 0.13 | 0.13 | 94 | 1003.7 |
| 20260830175130 | 60 | 196 | 3.5 | 7.8 | 0.00 | 0.13 | 0.13 | 94 | 1003.8 |
| 20260830174129 | 60 | 195 | 2.6 | 7.0 | 0.00 | 0.13 | 0.13 | 95 | 1003.9 |
| 20260830173629 | 60 | 179 | 3.5 | 7.0 | 0.01 | 0.13 | 0.13 | 94 | 1004.0 |
| 20260830171629 | 60 | 165 | 4.3 | 7.0 | 0.10 | 0.13 | 0.13 | 94 | 1004.1 |
| 20260830171129 | 59 | 247 | 1.7 | 6.1 | 0.12 | 0.13 | 0.13 | 94 | 1004.0 |
| 20260830170129 | 59 | 200 | 5.2 | 9.6 | 0.12 | 0.13 | 0.13 | 94 | 1004.2 |
| 20260830165630 | 59 | 220 | 4.3 | 7.0 | 0.12 | 0.13 | 0.13 | 93 | 1004.3 |
| 20260830165129 | 59 | 274 | 3.5 | 7.0 | 0.12 | 0.13 | 0.13 | 93 | 1004.2 |
| 20260830164628 | 59 | 243 | 2.6 | 7.0 | 0.12 | 0.13 | 0.13 | 93 | 1004.2 |
| 20260830163628 | 60 | 188 | 5.2 | 10.4 | 0.11 | 0.13 | 0.12 | 92 | 1004.2 |
| 20260830162627 | 60 | 193 | 6.1 | 13.9 | 0.10 | 0.12 | 0.10 | 90 | 1004.6 |
| 20260830162127 | 61 | 212 | 6.1 | 13.9 | 0.06 | 0.08 | 0.02 | 87 | 1004.8 |
| 20260830161628 | 61 | 192 | 7.8 | 12.2 | 0.02 | 0.03 | 0.02 | 87 | 1004.7 |
| 20260830161128 | 63 | 231 | 6.1 | 12.2 | 0.00 | 0.02 | 0.01 | 84 | 1004.6 |
| 20260830160628 | 64 | 240 | 6.1 | 20.0 | 0.00 | 0.02 | 0.01 | 79 | 1004.5 |
| 20260830160130 | 65 | 220 | 8.7 | 20.0 | 0.00 | 0.02 | 0.01 | 79 | 1004.5 |
| 20260830155627 | 66 | 180 | 11.3 | 17.4 | 0.00 | 0.02 | 0.01 | 75 | 1004.4 |
| 20260830155128 | 67 | 176 | 7.0 | 14.8 | 0.00 | 0.02 | 0.01 | 72 | 1004.1 |
| 20260830154631 | 68 | 180 | 7.0 | 13.0 | 0.00 | 0.02 | 0.01 | 71 | 1004.0 |
| 20260830154127 | 68 | 175 | 4.3 | 10.4 | 0.00 | 0.02 | 0.01 | 71 | 1003.9 |
| 20260830153626 | 68 | 175 | 6.1 | 11.3 | 0.00 | 0.02 | 0.01 | 71 | 1003.9 |
| 20260830153135 | 69 | 140 | 4.3 | 12.2 | 0.00 | 0.02 | 0.01 | 70 | 1003.8 |
| 20260830152628 | 69 | 154 | 7.0 | 12.2 | 0.00 | 0.02 | 0.01 | 69 | 1003.8 |
| 20260830151628 | 70 | 189 | 7.8 | 11.3 | 0.00 | 0.02 | 0.01 | 70 | 1004.1 |
| 20260830151128 | 70 | 133 | 7.0 | 10.4 | 0.00 | 0.02 | 0.01 | 69 | 1003.9 |
| 20260830150628 | 70 | 130 | 6.1 | 11.3 | 0.00 | 0.02 | 0.01 | 69 | 1004.0 |
| 20260830150127 | 71 | 155 | 4.3 | 11.3 | 0.00 | 0.02 | 0.01 | 67 | 1004.1 |
| 20260830145626 | 71 | 140 | 6.1 | 11.3 | 0.00 | 0.02 | 0.01 | 67 | 1004.1 |
| 20260830145129 | 71 | 180 | 6.1 | 11.3 | 0.00 | 0.02 | 0.01 | 67 | 1004.3 |
| 20260830144628 | 71 | 144 | 7.0 | 16.5 | 0.00 | 0.02 | 0.01 | 65 | 1004.2 |
| 20260830144128 | 71 | 183 | 7.8 | 16.5 | 0.00 | 0.02 | 0.01 | 63 | 1004.3 |
| 20260830143628 | 72 | 178 | 7.0 | 15.6 | 0.00 | 0.02 | 0.01 | 61 | 1004.3 |
| 20260830143128 | 72 | 180 | 7.8 | 15.6 | 0.00 | 0.02 | 0.01 | 61 | 1004.4 |
| 20260830142629 | 73 | 248 | 9.6 | 15.6 | 0.00 | 0.02 | 0.01 | 61 | 1004.4 |
| 20260830142129 | 73 | 200 | 4.3 | 13.9 | 0.00 | 0.02 | 0.01 | 64 | 1004.4 |
| 20260830141628 | 72 | 189 | 4.3 | 17.4 | 0.00 | 0.02 | 0.01 | 63 | 1004.4 |
| 20260830140129 | 72 | 155 | 3.5 | 14.8 | 0.00 | 0.02 | 0.01 | 64 | 1004.8 |
| 20260830135627 | 71 | 204 | 7.8 | 13.9 | 0.00 | 0.02 | 0.01 | 65 | 1005.0 |
| 20260830135128 | 71 | 186 | 6.1 | 12.2 | 0.00 | 0.02 | 0.01 | 66 | 1004.8 |
| 20260830134129 | 71 | 140 | 5.2 | 13.9 | 0.00 | 0.02 | 0.01 | 67 | 1004.9 |
| 20260830133628 | 71 | 235 | 9.6 | 13.9 | 0.00 | 0.02 | 0.01 | 67 | 1005.0 |
| 20260830133126 | 71 | 173 | 5.2 | 13.9 | 0.00 | 0.02 | 0.01 | 68 | 1005.1 |
| 20260830132628 | 71 | 185 | 7.0 | 13.0 | 0.00 | 0.02 | 0.01 | 71 | 1005.0 |
| 20260830132127 | 69 | 248 | 6.1 | 13.9 | 0.00 | 0.02 | 0.01 | 73 | 1005.0 |
| 20260830131128 | 69 | 176 | 5.2 | 13.9 | 0.00 | 0.02 | 0.01 | 74 | 1005.2 |
| 20260830130628 | 69 | 186 | 9.6 | 13.9 | 0.00 | 0.02 | 0.01 | 73 | 1005.3 |
| 20260830125105 | 69 | 210 | 5.2 | 10.4 | 0.00 | 0.02 | 0.01 | 78 | 1005.4 |
| 20260830124604 | 68 | 196 | 7.0 | 10.4 | 0.00 | 0.02 | 0.01 | 80 | 1005.5 |
| 20260830124102 | 68 | 182 | 4.3 | 10.4 | 0.00 | 0.02 | 0.01 | 82 | 1005.5 |
| 20260830123607 | 66 | 190 | 3.5 | 10.4 | 0.00 | 0.02 | 0.01 | 82 | 1005.6 |
| 20260830123031 | 66 | 206 | 3.5 | 7.8 | 0.00 | 0.02 | 0.01 | 79 | 1005.6 |
| 20260830122535 | 66 | 161 | 5.2 | 7.0 | 0.00 | 0.02 | 0.01 | 79 | 1005.7 |
| 20260830122032 | 66 | 145 | 3.5 | 7.0 | 0.00 | 0.02 | 0.01 | 79 | 1005.6 |
| 20260830121527 | 66 | 157 | 3.5 | 10.4 | 0.00 | 0.02 | 0.01 | 79 | 1005.5 |
| 20260830121025 | 66 | 173 | 3.5 | 10.4 | 0.00 | 0.02 | 0.01 | 79 | 1005.6 |
| 20260830120517 | 66 | 189 | 2.6 | 7.8 | 0.00 | 0.02 | 0.01 | 80 | 1005.6 |
| 20260830120008 | 65 | 199 | 4.3 | 10.4 | 0.00 | 0.02 | 0.01 | 82 | 1005.6 |
| 20260830113926 | 65 | 182 | 7.0 | 13.0 | 0.00 | 0.02 | 0.01 | 80 | 1005.9 |
| 20260830113425 | 66 | 189 | 6.1 | 10.4 | 0.00 | 0.02 | 0.01 | 79 | 1005.8 |
| 20260830112408 | 66 | 185 | 6.1 | 13.0 | 0.00 | 0.02 | 0.01 | 78 | 1005.9 |
| 20260830111904 | 66 | 206 | 6.1 | 12.2 | 0.00 | 0.02 | 0.01 | 79 | 1005.9 |
| 20260830111404 | 66 | 226 | 12.2 | 9.6 | 0.00 | 0.02 | 0.01 | 80 | 1005.9 |
| 20260830110904 | 65 | 227 | 5.2 | 9.6 | 0.00 | 0.02 | 0.01 | 81 | 1005.9 |
| 20260830110403 | 65 | 216 | 6.1 | 11.3 | 0.00 | 0.02 | 0.01 | 81 | 1006.1 |
| 20260830105831 | 65 | 189 | 4.3 | 11.3 | 0.00 | 0.02 | 0.01 | 79 | 1006.0 |
| 20260830105331 | 65 | 252 | 7.0 | 11.3 | 0.00 | 0.02 | 0.01 | 79 | 1006.0 |
| 20260830104332 | 65 | 224 | 6.1 | 13.0 | 0.00 | 0.02 | 0.01 | 82 | 1005.9 |
| 20260830103326 | 64 | 254 | 3.5 | 7.8 | 0.00 | 0.02 | 0.01 | 82 | 1005.9 |
| 20260830102828 | 64 | 223 | 3.5 | 9.6 | 0.00 | 0.02 | 0.01 | 81 | 1006.0 |
| 20260830102327 | 64 | 209 | 5.2 | 9.6 | 0.00 | 0.02 | 0.01 | 81 | 1005.9 |
| 20260830101816 | 65 | 202 | 4.3 | 9.6 | 0.00 | 0.02 | 0.01 | 81 | 1006.0 |
| 20260830101305 | 65 | 216 | 4.3 | 11.3 | 0.00 | 0.02 | 0.01 | 79 | 1006.0 |
| 20260830100801 | 65 | 228 | 5.2 | 11.3 | 0.00 | 0.02 | 0.01 | 80 | 1006.1 |
| 20260830095246 | 63 | 219 | 4.3 | 9.6 | 0.00 | 0.02 | 0.01 | 86 | 1006.2 |
| 20260830094744 | 63 | 192 | 2.6 | 7.8 | 0.00 | 0.02 | 0.01 | 86 | 1006.1 |
| 20260830094241 | 63 | 204 | 3.5 | 7.8 | 0.00 | 0.02 | 0.01 | 87 | 1006.1 |
| 20260830093734 | 63 | 250 | 4.3 | 9.6 | 0.00 | 0.02 | 0.01 | 87 | 1006.1 |
| 20260830092734 | 63 | 245 | 2.6 | 9.6 | 0.00 | 0.02 | 0.01 | 87 | 1006.2 |
| 20260830092230 | 63 | 202 | 4.3 | 9.6 | 0.00 | 0.02 | 0.01 | 88 | 1006.1 |
| 20260830091729 | 63 | 183 | 3.5 | 9.6 | 0.00 | 0.02 | 0.01 | 89 | 1006.1 |
| 20260830091231 | 63 | 207 | 5.2 | 7.8 | 0.00 | 0.02 | 0.01 | 90 | 1006.2 |
| 20260830090729 | 62 | 173 | 3.5 | 7.8 | 0.00 | 0.02 | 0.01 | 92 | 1006.1 |
| 20260830090229 | 60 | 204 | 4.3 | 9.6 | 0.00 | 0.02 | 0.01 | 94 | 1006.2 |
| 20260830085229 | 60 | 164 | 3.5 | 6.1 | 0.00 | 0.02 | 0.01 | 95 | 1006.1 |
| 20260830084730 | 59 | 188 | 3.5 | 7.8 | 0.00 | 0.02 | 0.01 | 96 | 1006.1 |
| 20260830084229 | 59 | 200 | 5.2 | 7.8 | 0.01 | 0.02 | 0.01 | 96 | 1006.2 |
| 20260830083729 | 59 | 180 | 3.5 | 7.0 | 0.01 | 0.02 | 0.01 | 96 | 1006.1 |
| 20260830083230 | 59 | 190 | 3.5 | 6.1 | 0.01 | 0.02 | 0.01 | 97 | 1006.2 |
| 20260830082730 | 58 | 258 | 1.7 | 6.1 | 0.01 | 0.02 | 0.01 | 97 | 1006.1 |
| 20260830082228 | 58 | 158 | 1.7 | 5.2 | 0.01 | 0.02 | 0.01 | 97 | 1006.1 |
| 20260830080723 | 58 | 176 | 4.3 | 7.8 | 0.01 | 0.02 | 0.01 | 96 | 1006.1 |
| 20260830080225 | 58 | 212 | 3.5 | 6.1 | 0.01 | 0.02 | 0.01 | 97 | 1006.0 |
| 20260830075726 | 58 | 199 | 2.6 | 6.1 | 0.01 | 0.02 | 0.01 | 97 | 1006.1 |
| 20260830075226 | 58 | 199 | 3.5 | 6.1 | 0.01 | 0.02 | 0.01 | 97 | 1006.2 |
| 20260830074727 | 58 | 219 | 1.7 | 6.1 | 0.01 | 0.02 | 0.01 | 97 | 1006.2 |
| 20260830074226 | 57 | 217 | 1.7 | 7.0 | 0.00 | 0.01 | 0.00 | 97 | 1006.3 |
| 20260830073726 | 57 | 238 | 1.7 | 7.0 | 0.00 | 0.01 | 0.00 | 97 | 1006.1 |
| 20260830073227 | 57 | 257 | 2.6 | 7.0 | 0.00 | 0.01 | 0.00 | 97 | 1006.1 |
| 20260830072725 | 57 | 234 | 3.5 | 7.0 | 0.00 | 0.01 | 0.00 | 97 | 1006.3 |
| 20260830072228 | 57 | 216 | 3.5 | 7.0 | 0.00 | 0.01 | 0.00 | 97 | 1006.2 |
| 20260830071724 | 57 | 231 | 3.5 | 7.0 | 0.00 | 0.01 | 0.00 | 97 | 1006.2 |
| 20260830071225 | 57 | 195 | 1.7 | 6.1 | 0.00 | 0.01 | 0.00 | 97 | 1006.1 |
| 20260830070233 | 57 | 226 | 2.6 | 7.0 | 0.00 | 0.01 | 0.00 | 97 | 1006.0 |
| 20260830065727 | 56 | 214 | 2.6 | 7.0 | 0.00 | 0.01 | 0.00 | 97 | 1006.1 |
| 20260830065229 | 56 | 192 | 2.6 | 6.1 | 0.00 | 0.01 | 0.00 | 97 | 1006.0 |
| 20260830064727 | 56 | 207 | 0.9 | 3.5 | 0.00 | 0.01 | 0.00 | 97 | 1005.9 |
| 20260830064225 | 56 | 207 | 0.0 | 2.6 | 0.00 | 0.01 | 0.00 | 97 | 1006.0 |
| 20260830063728 | 56 | 207 | 0.0 | 2.6 | 0.00 | 0.01 | 0.00 | 97 | 1005.9 |
| 20260830063226 | 56 | 207 | 0.9 | 2.6 | 0.00 | 0.01 | 0.00 | 97 | 1005.9 |
| 20260830062725 | 56 | 202 | 0.0 | 3.5 | 0.00 | 0.01 | 0.00 | 97 | 1005.9 |
| 20260830062227 | 56 | 202 | 0.0 | 3.5 | 0.00 | 0.01 | 0.00 | 97 | 1005.9 |
| 20260830061727 | 56 | 202 | 0.0 | 2.6 | 0.00 | 0.01 | 0.00 | 97 | 1005.8 |
| 20260830060725 | 56 | 31 | 0.0 | 2.6 | 0.00 | 0.01 | 0.00 | 97 | 1005.7 |
| 20260830060226 | 56 | 31 | 0.0 | 2.6 | 0.00 | 0.01 | 0.00 | 97 | 1005.7 |
| 20260830054725 | 56 | 31 | 0.0 | 2.6 | 0.00 | 0.01 | 0.00 | 97 | 1005.7 |
| 20260830054228 | 56 | 31 | 0.0 | 1.7 | 0.00 | 0.01 | 0.00 | 97 | 1005.7 |
| 20260830053728 | 56 | 31 | 0.0 | 1.7 | 0.00 | 0.01 | 0.00 | 97 | 1005.6 |
| 20260830052728 | 56 | 31 | 0.0 | 1.7 | 0.00 | 0.01 | 0.00 | 97 | 1005.6 |
| 20260830052225 | 56 | 31 | 0.0 | 1.7 | 0.00 | 0.01 | 0.00 | 97 | 1005.6 |
| 20260830051726 | 56 | 31 | 0.0 | 2.6 | 0.00 | 0.01 | 0.00 | 97 | 1005.6 |
| 20260830051225 | 55 | 31 | 0.0 | 2.6 | 0.00 | 0.01 | 0.00 | 97 | 1005.5 |
| 20260830050724 | 56 | 31 | 0.0 | 1.7 | 0.00 | 0.01 | 0.00 | 97 | 1005.5 |
| 20260830050227 | 55 | 31 | 0.0 | 1.7 | 0.00 | 0.01 | 0.00 | 97 | 1005.5 |
| 20260830045726 | 55 | 31 | 0.0 | 2.6 | 0.00 | 0.01 | 0.00 | 97 | 1005.4 |
| 20260830045225 | 55 | 31 | 0.0 | 2.6 | 0.00 | 0.01 | 0.00 | 97 | 1005.4 |
| 20260830044724 | 55 | 31 | 0.0 | 1.7 | 0.00 | 0.01 | 0.00 | 97 | 1005.4 |
| 20260830044227 | 55 | 31 | 0.0 | 1.7 | 0.00 | 0.01 | 0.00 | 97 | 1005.4 |
| 20260830043728 | 56 | 31 | 0.0 | 1.7 | 0.00 | 0.01 | 0.00 | 97 | 1005.5 |
| 20260830043227 | 56 | 31 | 0.0 | 3.5 | 0.00 | 0.01 | 0.00 | 97 | 1005.5 |
| 20260830042727 | 56 | 31 | 0.0 | 3.5 | 0.00 | 0.01 | 0.00 | 97 | 1005.5 |
| 20260830042228 | 56 | 31 | 0.0 | 2.6 | 0.00 | 0.01 | 0.00 | 97 | 1005.5 |
| 20260830041725 | 56 | 31 | 0.0 | 1.7 | 0.00 | 0.01 | 0.00 | 97 | 1005.4 |
| 20260830041231 | 56 | 31 | 0.0 | 1.7 | 0.00 | 0.01 | 0.00 | 97 | 1005.4 |
| 20260830040730 | 56 | 31 | 0.0 | 1.7 | 0.00 | 0.01 | 0.00 | 97 | 1005.3 |
| 20260830035227 | 56 | 31 | 0.9 | 2.6 | 0.00 | 0.01 | 0.00 | 97 | 1005.3 |
| 20260830034728 | 56 | 31 | 0.0 | 3.5 | 0.00 | 0.01 | 0.00 | 97 | 1005.3 |
| 20260830034230 | 56 | 31 | 0.0 | 3.5 | 0.00 | 0.01 | 0.00 | 97 | 1005.2 |
| 20260830033724 | 56 | 31 | 0.9 | 3.5 | 0.00 | 0.01 | 0.00 | 97 | 1005.3 |
| 20260830033226 | 56 | 31 | 0.9 | 3.5 | 0.00 | 0.01 | 0.00 | 97 | 1005.3 |